Location: Sternwarte auf dem Internationalen Platz Vogelsang IP
(50.5721°N, 6.4398°E)
Time: 19:46:00
(UTC+01:00)

Transit 2A Rocket - Pass Details

Date: 12 December 2025
Orbit: 581 x 903 km, 66.7° (Epoch: 15 January)

Event Time Altitude Azimuth Distance (km) Brightness Sun altitude
Rises 08:56:11 0° 194° (SSW) 3,281 8.7 2.8°
Reaches altitude 10° 08:58:35 10° 189° (S) 2,401 8.1 3.1°
Maximum altitude 09:03:55 47° 117° (ESE) 1,122 6.7 3.7°
Drops below altitude 10° 09:09:37 10° 45° (NE) 2,564 7.8 4.3°
Sets 09:12:15 0° 40° (NE) 3,525 8.4 4.6°
